Location: Borowce
(50.8255°N, 19.6209°E)
Time: 07:51:07
(UTC+00:00)

Spot 4 - Pass Details

Date: 19 May 2025
Orbit: 699 x 715 km, 98.3° (Epoch: 16 June)

Event Time Altitude Azimuth Distance (km) Brightness Sun altitude
Exits shadow 21:17:47 27° 131° (SE) 1,352 4.8 -17.0°
Maximum altitude 21:20:08 50° 69° (ENE) 892 4.3 -17.2°
Drops below altitude 10° 21:24:45 10° 354° (N) 2,187 7.6 -17.4°
Sets 21:27:04 0° 350° (N) 3,113 8.9 -17.5°
